• Em Portugal
  • Lista de países
  • Para 7 dias
  • Temperatura da água
  • Mapas de satélite
  • Mapa do tempo
  • Widgets de tempo
  • user-avatar
    Iniciar Sessão

    Previsão horária em Juwaja

    Hoje, 22 Outubro, Segunda-feira

    Tempo Temperatura Precipitação Vento Pressão Humidade
    00:00 +23°C° 0 mm 1 m/s 737 mmHg 79%
    01:00 +23°C° 0 mm 1 m/s 737 mmHg 77%
    02:00 +22°C° 0 mm 1 m/s 737 mmHg 76%
    03:00 +22°C° 0 mm 1 m/s 737 mmHg 74%
    04:00 +22°C° 0 mm 1 m/s 737 mmHg 72%
    05:00 +22°C° 0 mm 1 m/s 737 mmHg 70%
    06:00 +23°C° 0 mm 1 m/s 738 mmHg 63%
    07:00 +24°C° 0 mm 2 m/s 738 mmHg 56%
    08:00 +26°C° 0 mm 2 m/s 738 mmHg 49%
    09:00 +27°C° 0 mm 2 m/s 738 mmHg 42%
    10:00 +29°C° 0 mm 2 m/s 738 mmHg 36%
    11:00 +30°C° 0 mm 2 m/s 738 mmHg 29%
    12:00 +31°C° 0 mm 2 m/s 738 mmHg 27%
    13:00 +33°C° 0 mm 3 m/s 737 mmHg 26%
    14:00 +33°C° 0 mm 3 m/s 737 mmHg 25%
    15:00 +31°C° 0 mm 3 m/s 737 mmHg 27%
    16:00 +30°C° 0 mm 3 m/s 736 mmHg 30%
    17:00 +29°C° 0 mm 3 m/s 736 mmHg 33%
    18:00 +29°C° 0 mm 3 m/s 736 mmHg 33%
    19:00 +28°C° 0 mm 3 m/s 736 mmHg 33%
    20:00 +28°C° 0 mm 3 m/s 736 mmHg 33%
    21:00 +28°C° 0.1 mm 3 m/s 736 mmHg 34%
    22:00 +27°C° 0.1 mm 3 m/s 736 mmHg 36%
    23:00 +27°C° 0.1 mm 3 m/s 736 mmHg 37%

    Amanhã, 23 Outubro, Terça-feira

    Tempo Temperatura Precipitação Vento Pressão Humidade
    00:00 +26°C° 0.3 mm 4 m/s 736 mmHg 40%
    01:00 +26°C° 0.3 mm 4 m/s 736 mmHg 43%
    02:00 +25°C° 0.3 mm 4 m/s 736 mmHg 47%
    03:00 +25°C° 0.6 mm 4 m/s 736 mmHg 49%
    04:00 +25°C° 0.6 mm 4 m/s 735 mmHg 51%
    05:00 +23°C° 0.6 mm 4 m/s 735 mmHg 54%
    06:00 +25°C° 0.4 mm 4 m/s 735 mmHg 50%
    07:00 +26°C° 0.4 mm 4 m/s 736 mmHg 47%
    08:00 +27°C° 0.4 mm 4 m/s 736 mmHg 44%
    09:00 +29°C° 0.1 mm 4 m/s 736 mmHg 39%
    10:00 +30°C° 0.1 mm 4 m/s 736 mmHg 34%
    11:00 +33°C° 0.1 mm 4 m/s 736 mmHg 29%
    12:00 +33°C° 0 mm 4 m/s 736 mmHg 29%
    13:00 +33°C° 0 mm 4 m/s 735 mmHg 29%
    14:00 +33°C° 0 mm 4 m/s 735 mmHg 29%
    15:00 +31°C° 0 mm 3 m/s 734 mmHg 34%
    16:00 +29°C° 0 mm 2 m/s 734 mmHg 39%
    17:00 +28°C° 0 mm 2 m/s 734 mmHg 44%
    18:00 +28°C° 0 mm 2 m/s 734 mmHg 46%
    19:00 +27°C° 0 mm 1 m/s 735 mmHg 48%
    20:00 +27°C° 0 mm 1 m/s 735 mmHg 50%
    21:00 +26°C° 0 mm 2 m/s 735 mmHg 50%
    22:00 +26°C° 0 mm 2 m/s 735 mmHg 50%
    23:00 +26°C° 0 mm 3 m/s 735 mmHg 50%

    Depois de amanhã, 24 Outubro, Quarta-feira

    Tempo Temperatura Precipitação Vento Pressão Humidade
    00:00 +26°C° 0 mm 3 m/s 735 mmHg 48%
    01:00 +25°C° 0 mm 3 m/s 734 mmHg 46%
    02:00 +25°C° 0 mm 3 m/s 734 mmHg 45%
    03:00 +25°C° 0 mm 2 m/s 734 mmHg 45%
    04:00 +25°C° 0 mm 2 m/s 734 mmHg 45%
    05:00 +25°C° 0 mm 2 m/s 733 mmHg 45%
    06:00 +25°C° 0 mm 2 m/s 734 mmHg 43%
    07:00 +26°C° 0 mm 2 m/s 734 mmHg 40%
    08:00 +27°C° 0 mm 3 m/s 735 mmHg 37%
    09:00 +28°C° 0 mm 3 m/s 734 mmHg 35%
    10:00 +29°C° 0 mm 3 m/s 734 mmHg 33%
    11:00 +29°C° 0 mm 3 m/s 734 mmHg 31%
    12:00 +30°C° 0 mm 3 m/s 734 mmHg 31%
    13:00 +30°C° 0 mm 3 m/s 733 mmHg 30%
    14:00 +30°C° 0 mm 3 m/s 733 mmHg 30%
    15:00 +29°C° 0 mm 3 m/s 733 mmHg 34%
    16:00 +28°C° 0 mm 2 m/s 733 mmHg 38%
    17:00 +27°C° 0 mm 1 m/s 732 mmHg 43%
    18:00 +27°C° 0 mm 1 m/s 732 mmHg 43%
    19:00 +26°C° 0 mm 1 m/s 733 mmHg 42%
    20:00 +26°C° 0 mm 1 m/s 733 mmHg 42%
    21:00 +26°C° 0 mm 1 m/s 733 mmHg 41%
    22:00 +25°C° 0 mm 1 m/s 733 mmHg 39%
    23:00 +25°C° 0 mm 2 m/s 732 mmHg 38%

    25 Outubro, Quinta-feira

    Tempo Temperatura Precipitação Vento Pressão Humidade
    00:00 +25°C° 0 mm 2 m/s 732 mmHg 37%
    01:00 +25°C° 0 mm 3 m/s 732 mmHg 37%
    02:00 +24°C° 0 mm 3 m/s 732 mmHg 36%
    03:00 +24°C° 0 mm 3 m/s 731 mmHg 38%
    04:00 +24°C° 0 mm 3 m/s 731 mmHg 39%
    05:00 +24°C° 0 mm 3 m/s 731 mmHg 40%
    06:00 +24°C° 0.3 mm 3 m/s 731 mmHg 41%
    07:00 +25°C° 0.3 mm 3 m/s 731 mmHg 43%
    08:00 +26°C° 0.3 mm 3 m/s 731 mmHg 44%
    09:00 +26°C° 0.7 mm 4 m/s 731 mmHg 44%
    10:00 +27°C° 0.7 mm 4 m/s 731 mmHg 44%
    11:00 +27°C° 0.7 mm 5 m/s 731 mmHg 44%
    12:00 +27°C° 0.6 mm 6 m/s 730 mmHg 47%
    13:00 +27°C° 0.6 mm 7 m/s 730 mmHg 51%
    14:00 +27°C° 0.6 mm 8 m/s 730 mmHg 55%
    15:00 +26°C° 0.7 mm 8 m/s 730 mmHg 62%
    16:00 +23°C° 0.7 mm 8 m/s 730 mmHg 69%
    17:00 +22°C° 0.7 mm 8 m/s 731 mmHg 76%
    18:00 +22°C° 0.8 mm 8 m/s 731 mmHg 78%
    19:00 +21°C° 0.8 mm 8 m/s 732 mmHg 79%
    20:00 +21°C° 0.8 mm 7 m/s 732 mmHg 80%
    21:00 +21°C° 0.9 mm 7 m/s 732 mmHg 81%
    22:00 +21°C° 0.9 mm 7 m/s 732 mmHg 82%
    23:00 +21°C° 0.9 mm 7 m/s 733 mmHg 82%

    26 Outubro, Sexta-feira

    Tempo Temperatura Precipitação Vento Pressão Humidade
    00:00 +20°C° 0.3 mm 7 m/s 733 mmHg 80%
    01:00 +20°C° 0.3 mm 7 m/s 733 mmHg 77%
    02:00 +20°C° 0.3 mm 7 m/s 733 mmHg 75%
    03:00 +20°C° 0.1 mm 7 m/s 733 mmHg 75%
    04:00 +18°C° 0.1 mm 8 m/s 734 mmHg 75%
    05:00 +18°C° 0.1 mm 8 m/s 734 mmHg 75%
    06:00 +18°C° 0.1 mm 8 m/s 734 mmHg 72%
    07:00 +18°C° 0.1 mm 8 m/s 735 mmHg 70%
    08:00 +18°C° 0.1 mm 8 m/s 736 mmHg 67%
    09:00 +18°C° 0.1 mm 7 m/s 736 mmHg 67%
    10:00 +18°C° 0.1 mm 7 m/s 737 mmHg 68%
    11:00 +20°C° 0.1 mm 6 m/s 737 mmHg 68%
    12:00 +20°C° 0.1 mm 6 m/s 737 mmHg 67%
    13:00 +20°C° 0.1 mm 6 m/s 737 mmHg 66%
    14:00 +20°C° 0.1 mm 6 m/s 738 mmHg 64%
    15:00 +19°C° 0 mm 6 m/s 738 mmHg 64%
    16:00 +17°C° 0 mm 5 m/s 738 mmHg 63%
    17:00 +17°C° 0 mm 5 m/s 739 mmHg 62%
    18:00 +17°C° 0 mm 4 m/s 739 mmHg 61%
    19:00 +17°C° 0 mm 4 m/s 740 mmHg 61%
    20:00 +16°C° 0 mm 3 m/s 740 mmHg 60%
    21:00 +16°C° 0 mm 3 m/s 740 mmHg 60%
    22:00 +16°C° 0 mm 2 m/s 741 mmHg 59%
    23:00 +16°C° 0 mm 2 m/s 741 mmHg 58%

    27 Outubro, Sábado

    Tempo Temperatura Precipitação Vento Pressão Humidade
    00:00 +16°C° 0 mm 2 m/s 741 mmHg 57%
    01:00 +16°C° 0 mm 2 m/s 741 mmHg 57%
    02:00 +16°C° 0 mm 3 m/s 741 mmHg 56%
    03:00 +14°C° 0 mm 3 m/s 741 mmHg 57%
    04:00 +14°C° 0 mm 3 m/s 741 mmHg 58%
    05:00 +14°C° 0 mm 3 m/s 741 mmHg 58%
    06:00 +16°C° 0 mm 3 m/s 742 mmHg 55%
    07:00 +17°C° 0 mm 3 m/s 742 mmHg 52%
    08:00 +19°C° 0 mm 3 m/s 742 mmHg 49%
    09:00 +20°C° 0 mm 3 m/s 742 mmHg 42%
    10:00 +21°C° 0 mm 3 m/s 742 mmHg 35%
    11:00 +24°C° 0 mm 3 m/s 742 mmHg 29%
    12:00 +24°C° 0 mm 3 m/s 742 mmHg 27%
    13:00 +25°C° 0 mm 3 m/s 741 mmHg 24%
    14:00 +25°C° 0 mm 3 m/s 741 mmHg 22%
    15:00 +24°C° 0 mm 3 m/s 741 mmHg 24%
    16:00 +22°C° 0 mm 4 m/s 741 mmHg 25%
    17:00 +21°C° 0 mm 4 m/s 741 mmHg 27%
    18:00 +21°C° 0 mm 4 m/s 741 mmHg 26%
    19:00 +21°C° 0 mm 4 m/s 741 mmHg 25%
    20:00 +20°C° 0 mm 4 m/s 741 mmHg 25%
    21:00 +20°C° 0 mm 4 m/s 741 mmHg 25%
    22:00 +20°C° 0 mm 4 m/s 741 mmHg 24%
    23:00 +19°C° 0 mm 4 m/s 741 mmHg 24%

    28 Outubro, Domingo

    Tempo Temperatura Precipitação Vento Pressão Humidade
    00:00 +19°C° 0 mm 4 m/s 741 mmHg 25%
    01:00 +19°C° 0 mm 4 m/s 740 mmHg 26%
    02:00 +19°C° 0 mm 4 m/s 740 mmHg 27%
    03:00 +19°C° 0 mm 4 m/s 740 mmHg 28%
    04:00 +19°C° 0 mm 4 m/s 740 mmHg 30%
    05:00 +19°C° 0 mm 4 m/s 740 mmHg 31%
    06:00 +20°C° 0 mm 5 m/s 740 mmHg 31%
    07:00 +21°C° 0 mm 5 m/s 741 mmHg 30%
    08:00 +22°C° 0 mm 6 m/s 741 mmHg 30%
    09:00 +23°C° 0 mm 6 m/s 741 mmHg 29%
    10:00 +26°C° 0 mm 6 m/s 741 mmHg 28%
    11:00 +27°C° 0 mm 6 m/s 741 mmHg 27%
    12:00 +28°C° 0 mm 6 m/s 740 mmHg 26%
    13:00 +28°C° 0 mm 6 m/s 740 mmHg 26%
    14:00 +29°C° 0 mm 5 m/s 740 mmHg 26%
    15:00 +28°C° 0 mm 5 m/s 739 mmHg 28%
    16:00 +27°C° 0 mm 5 m/s 739 mmHg 30%
    17:00 +26°C° 0 mm 4 m/s 739 mmHg 32%
    18:00 +25°C° 0 mm 4 m/s 739 mmHg 30%
    19:00 +25°C° 0 mm 4 m/s 739 mmHg 29%
    20:00 +23°C° 0 mm 4 m/s 739 mmHg 27%
    21:00 +23°C° 0 mm 4 m/s 739 mmHg 28%
    22:00 +23°C° 0 mm 4 m/s 739 mmHg 30%
    23:00 +23°C° 0 mm 4 m/s 739 mmHg 31%
    Mostrar mais